NOAA 16 DEB

Satellite information

Favourite Embed

Satellite Type and Status

DEBRISIN ORBIT

Key statistics

Satellite NOAA 16 DEB at a glance.

Uptime

9054

Days in orbit

Revolutions

≈ 14.5

Per day

Orbit

SSO

Sun Synchronous Orbit

Inclination

98.8

Latest

Satellite identification and parameters

Extended collection of information and parameters for NOAA 16 DEB.

Object identification

Identified? True

Debris? True

Object name: NOAA 16 DEB

International designator: 2000-055TE

Object number (NORAD): 42410

Object ID (CCSDS): 42410

Country: UNITED STATES OF AMERICA (US)

Current information (Y/N): Y

RCS size: SMALL

Orbital parameters

Period: 99.489 minutes

Inclination: 98.8121 deg

SMA: 7112.322 km

Apoapsis: 757.886 km

Periapsis: 710.489 km

RAAN: 314.8303 deg

Eccentricy: 0.003332

Argument of periapsis: 71.7603 deg

Mean anomaly: 288.721 deg

Mean motion: 14.47390123 rev/day

Mean motion (dot): 0.00006546 rev/day2

B* drag term: 0.0017846 1/REarth

Two-line elements (TLE)

Creation date: July 2, 2025, 10:46 p.m.

Reference frame: TEME

Reference center: EARTH

Epoch: July 2, 2025, 7:49 p.m. UTC

TLE line 0: 0 NOAA 16 DEB

TLE line 1: 1 42410U 00055TE 25183.82584793 .00006546 00000-0 17846-2 0 9995

TLE line 2: 2 42410 98.8121 314.8303 0033320 71.7603 288.7210 14.47390123486087

Live tracking on map

Real-time ground track for satellite NOAA 16 DEB.

In-orbit conjunctions

A list of the most updated potential collisions computed for object NOAA 16 DEB.

Target Orbit TCA Probability of collision Miss distance Type
FENGYUN 1C DEB SSO 2025-03-13 23:06:48 0.0002776929 112.0 (m) DEBRIS
CZ-6A DEB SSO 2024-11-10 11:39:31 0.0005202251 230.0 (m) DEBRIS

Associated space launch

The NOAA K, L and M POES satellites begin the fifth generation of improved environmental monitoring in support of NOAA missions. The instrument payload has significant improvements and additions/deletions. The instrument changes have effected the spacecraft subsystems and data formats.

NOAA 16 DEB was lifted into orbit during the mission ‘Titan II SLV | NOAA 16’, on board a Titan II SLV space rocket.

The launch took place on Sept. 21, 2000, 10:22 a.m. from Space Launch Complex 4W.

For more information about the launch, click the button.

Launch to space Titan II SLV | NOAA 16
Titan II SLV | NOAA 16

Agency: N/A

Status: Launch Successful

Launch date: Sept. 21, 2000, 10:22 a.m. UTC

Rocket: Titan II SLV

Launch pad: Space Launch Complex 4W

Location: Vandenberg SFB, CA, USA

...

Latest news about this satellite

There are no fresh news available about this satellite. Check back as we update our databases every day.


Newsletter sign-up

Weekly statistics, charts and insights to help you stay on top of the space industry.